EUTE 3B

导读 | 豆包AI

EUTE 3B(现称Eutelsat 3B)由欧洲通信卫星组织(Eutelsat)运营,于2014年5月26日发射,定点在3°E轨位,属欧洲通信卫星公司卫星舰队。它覆盖欧洲、中东、非洲、亚洲及美洲部分区域,提供卫星广播、高速互联网、固定与移动通信服务,助力全球千万电视家庭及多元通信需求,是Eutelsat全球卫星网络的重要组成部分。

Basic Information
目录编号:
39773
目录名称:
EUTE 3B
国际标识:
2014-030A
轨道中心:
EARTH
卫星名称:
EUTE 3B
卫星全名:
--
卫星状态:
在轨 (已飞行4358 天)
发射日期:
2014-05-26 UTC
国别 :
(EUTE)
星等 :
--
Orbit Information
数据来源 国际轨道数据 AOE轨道数据
星历时间 2026-04-30T14:34:02+0800
17小时前
查看轨道信息
2026-04-30T11:00:00+0800
21小时前
查看轨道信息
半长轴 42164.868km 42164.644km
偏心率 0.0004139 0.0004079
轨道倾角 0.068° 0.068°
近地点辐角 54.588° 52.935°
升交点赤经 346.675° 346.972°
平近点角 278.568° 226.274°
近地点 35769.278km 35769.308km
远地点 35804.184km 35803.706km
周期 1436.104分钟 1436.092分钟
每日圈数 1.002713 1.002721
Detailed Information
使用方式:
暂无
2D Orbit Map
3D Orbit Map
Orbit Altitude Analysis Chart
Orbit Inclination Analysis Chart
Orbit Comprehensive Analysis Chart
View Comprehensive Chart